FW8600 Weather Reports


Display with metric or nautical units.
time (UTC)temp
F
wind
direction
speed
MPH
gust
MPH
rain 1hr
in
rain 24hr
in
rain mn
in
humidity
%
barometer
mb
20260505034531 56 0 0.0 1.0 0.00 0.00 0.00 67 1015.4
20260505033030 57 0 0.0 1.0 0.00 0.00 0.00 68 1015.6
20260505031532 58 0 0.0 0.0 0.00 0.00 0.00 64 1015.7
20260505030031 59 0 0.0 1.0 0.00 0.00 0.00 62 1015.8
20260505024532 59 0 0.0 1.0 0.00 0.00 0.00 61 1015.8
20260505023030 60 0 0.0 0.0 0.00 0.00 0.00 59 1015.8
20260505021530 62 0 0.0 1.0 0.00 0.00 0.00 57 1015.6
20260505020032 64 0 0.0 2.0 0.00 0.00 0.00 53 1015.5
20260505014532 66 64 1.0 4.0 0.00 0.00 0.00 48 1015.3
20260505013031 67 0 0.0 8.0 0.00 0.00 0.00 47 1015.1
20260505011532 67 51 3.0 9.0 0.00 0.00 0.00 46 1015.0
20260505010030 68 67 2.0 11.0 0.00 0.00 0.00 46 1015.0
20260505004530 67 52 3.0 9.0 0.00 0.00 0.00 47 1014.6
20260505003031 66 0 0.0 4.0 0.00 0.00 0.00 47 1014.4
20260505001532 67 62 0.0 3.0 0.00 0.00 0.00 47 1014.4
20260505000030 68 37 0.0 1.0 0.00 0.00 0.00 44 1014.4
20260504234534 69 0 0.0 3.0 0.00 0.00 0.00 44 1014.3
20260504233033 69 56 1.0 4.0 0.00 0.00 0.00 42 1014.2
20260504231530 70 0 0.0 4.0 0.00 0.00 0.00 41 1014.0
20260504230034 71 32 2.0 7.0 0.00 0.00 0.00 39 1014.1
20260504224529 73 41 7.0 11.0 0.00 0.00 0.00 36 1014.1
20260504223029 74 43 4.0 9.0 0.00 0.00 0.00 35 1013.9
20260504221531 73 307 1.0 13.0 0.00 0.00 0.00 37 1014.0
20260504220034 74 57 6.0 12.0 0.00 0.00 0.00 34 1014.0
20260504214530 74 55 9.0 21.0 0.00 0.00 0.00 35 1014.0
20260504213032 74 326 7.0 16.0 0.00 0.00 0.00 36 1014.0
20260504211533 75 60 5.0 20.0 0.00 0.00 0.00 36 1013.9
20260504210035 75 80 5.0 19.0 0.00 0.00 0.00 36 1013.9
20260504204533 75 56 6.0 15.0 0.00 0.00 0.00 35 1014.0
20260504203049 75 62 8.0 18.0 0.00 0.00 0.00 36 1014.2
20260504201532 75 32 8.0 16.0 0.00 0.00 0.00 36 1014.2
20260504200032 75 27 6.0 14.0 0.00 0.00 0.00 35 1014.3
20260504194535 76 328 5.0 15.0 0.00 0.00 0.00 36 1014.5
20260504193034 76 73 4.0 15.0 0.00 0.00 0.00 39 1014.7
20260504191532 74 61 4.0 16.0 0.00 0.00 0.00 38 1014.8
20260504190030 74 281 5.0 11.0 0.00 0.00 0.00 39 1015.1
20260504184534 74 316 4.0 14.0 0.00 0.00 0.00 39 1015.3
20260504183035 73 307 5.0 10.0 0.00 0.00 0.00 40 1015.5
20260504181535 73 321 8.0 14.0 0.00 0.00 0.00 39 1015.7
20260504180032 73 288 6.0 11.0 0.00 0.00 0.00 42 1015.8
20260504174532 73 348 6.0 10.0 0.00 0.00 0.00 41 1015.9
20260504173030 71 307 5.0 10.0 0.00 0.00 0.00 43 1016.0
20260504171532 71 183 3.0 9.0 0.00 0.00 0.00 40 1016.2
20260504081534 40 0 0.0 0.0 0.00 0.00 0.00 93 1017.3
20260504044532 45 0 0.0 0.0 0.00 0.00 0.00 84 1017.4
20260504043031 45 0 0.0 0.0 0.00 0.00 0.00 82 1017.4
20260504041530 46 0 0.0 1.0 0.00 0.00 0.00 81 1017.4
20260504040032 47 57 0.0 0.0 0.00 0.00 0.00 77 1017.2